DW8463 Weather Reports


time (UTC)temp
F
wind
direction
speed
knots
gust
knots
rain 1hr
in
rain 24hr
in
rain mn
in
humidity
%
barometer
mb
20260831105803 68 0 0.0 0.0 0.00 0.00 0.00 100 1006.0
20260831105306 68 0 0.0 0.0 0.00 0.00 0.00 100 1006.1
20260831104804 68 0 0.0 0.0 0.00 0.00 0.00 100 1006.1
20260831104303 68 0 0.0 0.0 0.00 0.00 0.00 100 1006.1
20260831103804 68 0 0.0 0.0 0.00 0.00 0.00 100 1006.2
20260831103304 68 0 0.0 0.0 0.00 0.00 0.00 100 1006.2
20260831102803 68 0 0.0 0.0 0.00 0.00 0.00 100 1006.1
20260831102306 68 0 0.0 0.0 0.00 0.00 0.00 100 1006.2
20260831101804 68 0 0.0 0.0 0.00 0.00 0.00 100 1006.2
20260831100803 68 0 0.0 0.0 0.00 0.00 0.00 100 1006.2
20260831100304 68 0 0.0 0.0 0.00 0.00 0.00 100 1006.2
20260831095803 68 0 0.0 0.0 0.00 0.00 0.00 100 1006.2
20260831094804 68 0 0.0 0.0 0.00 0.00 0.00 100 1006.2
20260831094303 68 0 0.0 0.0 0.00 0.00 0.00 100 1006.2
20260831093804 68 0 0.0 0.0 0.00 0.00 0.00 100 1006.2
20260831093304 68 0 0.0 0.0 0.00 0.00 0.00 100 1006.3
20260831092306 68 0 0.0 0.0 0.00 0.00 0.00 100 1006.1
20260831091803 68 0 0.0 0.0 0.00 0.00 0.00 100 1006.1
20260831091304 68 0 0.0 0.0 0.00 0.00 0.00 100 1006.2
20260831090803 68 0 0.0 0.0 0.00 0.00 0.00 100 1006.1
20260831090303 68 0 0.0 0.0 0.00 0.00 0.00 100 1006.2
20260831085804 68 0 0.0 0.0 0.00 0.00 0.00 100 1006.1
20260831085306 68 0 0.0 0.0 0.00 0.00 0.00 100 1006.1
20260831084303 68 0 0.0 0.0 0.00 0.00 0.00 100 1006.2
20260831083803 68 0 0.0 0.0 0.00 0.00 0.00 100 1006.2
20260831083303 68 0 0.0 0.0 0.00 0.00 0.00 100 1006.0
20260831082803 68 0 0.0 0.0 0.00 0.00 0.00 100 1006.0
20260831082306 68 0 0.0 0.0 0.00 0.00 0.00 100 1006.0
20260831081804 68 0 0.0 0.0 0.00 0.00 0.00 100 1005.9
20260831081303 68 0 0.0 0.0 0.00 0.00 0.00 100 1006.0
20260831080804 68 0 0.0 0.0 0.00 0.00 0.00 100 1006.0
20260831080303 68 0 0.0 0.0 0.00 0.00 0.00 100 1005.9
20260831075804 68 0 0.0 0.0 0.00 0.00 0.00 100 1006.0
20260831075306 69 0 0.0 0.0 0.00 0.00 0.00 100 1006.0
20260831074803 69 0 0.0 0.0 0.00 0.00 0.00 100 1006.0
20260831073804 68 0 0.0 0.0 0.00 0.00 0.00 100 1006.1
20260831073304 68 0 0.0 0.0 0.00 0.00 0.00 100 1006.2
20260831072804 68 0 0.0 0.0 0.00 0.00 0.00 100 1006.3
20260831071305 69 0 0.0 0.0 0.00 0.00 0.00 100 1006.4
20260831070803 69 0 0.0 0.0 0.00 0.00 0.00 100 1006.6
20260831070303 69 0 0.0 0.0 0.00 0.00 0.00 100 1006.6
20260831065803 69 0 0.0 0.0 0.00 0.00 0.00 100 1006.5
20260831064803 69 0 0.0 0.0 0.00 0.00 0.00 100 1006.5
20260831064304 70 0 0.0 0.0 0.00 0.00 0.00 100 1006.5
20260831063804 70 0 0.0 0.0 0.00 0.00 0.00 100 1006.6
20260831063303 70 0 0.0 0.0 0.00 0.00 0.00 100 1006.6
20260831062803 70 0 0.0 0.0 0.00 0.00 0.00 100 1006.7
20260831062305 70 0 0.0 0.0 0.00 0.00 0.00 100 1006.9
20260831061804 70 0 0.0 0.0 0.00 0.00 0.00 100 1006.9
20260831060803 70 0 0.0 0.0 0.00 0.00 0.00 100 1007.0
20260831060303 71 0 0.0 0.0 0.00 0.00 0.00 100 1007.0
20260831055306 71 0 0.0 0.0 0.00 0.00 0.00 98 1007.1
20260831054803 71 0 0.0 0.0 0.00 0.00 0.00 98 1007.1
20260831053804 71 0 0.0 0.0 0.00 0.00 0.00 98 1007.1
20260831053303 71 0 0.0 0.0 0.00 0.00 0.00 98 1007.1
20260831052306 72 216 0.0 1.7 0.00 0.00 0.00 98 1007.3
20260831051804 72 356 0.0 2.6 0.00 0.00 0.00 98 1007.3
20260831051303 72 313 0.0 0.9 0.00 0.00 0.00 98 1007.4
20260831050814 72 355 0.0 0.0 0.00 0.00 0.00 98 1007.3
20260831050303 72 353 0.0 0.0 0.00 0.00 0.00 98 1007.3
20260831045306 72 297 0.0 0.0 0.00 0.00 0.00 94 1007.3
20260831044804 72 348 0.0 2.6 0.00 0.00 0.00 94 1007.3
20260831044304 73 274 0.9 2.6 0.00 0.00 0.00 94 1007.3
20260831043803 72 226 0.0 2.6 0.00 0.00 0.00 94 1007.3
20260831043303 72 222 0.9 2.6 0.00 0.00 0.00 94 1007.4
20260831042804 72 258 0.9 2.6 0.00 0.00 0.00 94 1007.3
20260831042306 73 226 0.0 1.7 0.00 0.00 0.00 94 1007.4
20260831041303 72 247 0.0 1.7 0.00 0.00 0.00 94 1007.4
20260831040804 73 225 0.0 0.9 0.00 0.00 0.00 94 1007.4
20260831040303 73 219 0.9 2.6 0.00 0.00 0.00 94 1007.4
20260831035804 73 270 0.0 0.0 0.00 0.00 0.00 91 1007.3
20260831035306 73 344 0.0 1.7 0.00 0.00 0.00 91 1007.3
20260831034804 73 262 0.0 2.6 0.00 0.00 0.00 91 1007.4
20260831034303 72 241 0.0 2.6 0.00 0.00 0.00 91 1007.5
20260831033804 73 197 0.0 2.6 0.00 0.00 0.00 91 1007.5
20260831033303 73 202 0.9 2.6 0.00 0.00 0.00 91 1007.5
20260831032804 73 218 0.0 4.3 0.00 0.00 0.00 91 1007.5
20260831032306 73 216 0.0 2.6 0.00 0.00 0.00 91 1007.6
20260831031804 73 201 0.0 1.7 0.00 0.00 0.00 91 1007.6
20260831031304 73 180 1.7 4.3 0.00 0.00 0.00 91 1007.7
20260831030804 73 147 0.0 2.6 0.00 0.00 0.00 91 1007.8
20260831030304 73 134 0.9 2.6 0.00 0.00 0.00 91 1007.8
20260831024803 74 155 0.0 0.0 0.00 0.00 0.00 92 1007.9
20260831023803 74 164 1.7 7.0 0.00 0.00 0.00 92 1007.9
20260831023304 74 168 0.9 2.6 0.00 0.00 0.00 92 1008.0
20260831022803 74 221 0.9 4.3 0.00 0.00 0.00 92 1008.0
20260831022306 74 162 1.7 5.2 0.00 0.00 0.00 92 1008.0
20260831021803 74 182 1.7 6.1 0.00 0.00 0.00 92 1008.0
20260831020804 74 157 1.7 5.2 0.00 0.00 0.00 92 1007.9
20260831020303 75 180 0.9 2.6 0.00 0.00 0.00 92 1007.9
20260831015804 74 144 1.7 6.1 0.00 0.00 0.00 87 1007.9
20260831015306 74 157 0.9 5.2 0.00 0.00 0.00 87 1007.8
20260831013803 75 152 0.9 4.3 0.00 0.00 0.00 87 1007.8
20260831013304 75 142 0.9 2.6 0.00 0.00 0.00 87 1007.8
20260831012803 75 167 1.7 2.6 0.00 0.00 0.00 87 1007.5
20260831012306 76 171 0.9 5.2 0.00 0.00 0.00 87 1007.4
20260831011803 76 155 1.7 6.1 0.00 0.00 0.00 87 1007.3
20260831010804 76 187 0.9 5.2 0.00 0.00 0.00 87 1007.3
20260831005803 77 149 1.7 6.1 0.00 0.00 0.00 82 1007.2
20260831005306 77 157 1.7 10.4 0.00 0.00 0.00 82 1007.1
20260831004803 77 171 3.5 10.4 0.00 0.00 0.00 82 1007.0
20260831004304 77 154 1.7 6.1 0.00 0.00 0.00 82 1007.0
20260831003803 78 160 2.6 10.4 0.00 0.00 0.00 82 1007.1
20260831003304 78 178 6.1 11.3 0.00 0.00 0.00 82 1007.2
20260831002306 78 169 3.5 11.3 0.00 0.00 0.00 82 1007.3
20260831001803 78 184 5.2 10.4 0.00 0.00 0.00 82 1007.2
20260831001305 79 167 1.7 8.7 0.00 0.00 0.00 82 1007.2
20260831000804 79 172 2.6 7.8 0.00 0.00 0.00 82 1007.2
20260831000304 79 161 2.6 7.0 0.00 0.00 0.00 82 1007.3
20260830235804 80 166 2.6 10.4 0.00 0.00 0.00 73 1007.3
20260830235305 80 166 4.3 10.4 0.00 0.00 0.00 73 1007.3
20260830234803 80 168 3.5 10.4 0.00 0.00 0.00 73 1007.3
20260830234304 80 179 4.3 10.4 0.00 0.00 0.00 73 1007.2
20260830233803 80 163 0.9 1.7 0.00 0.00 0.00 73 1007.2
20260830232803 81 191 0.9 5.2 0.00 0.00 0.00 73 1007.1
20260830231804 81 178 1.7 5.2 0.00 0.00 0.00 73 1007.1
20260830231304 82 166 1.7 10.4 0.00 0.00 0.00 73 1007.1
20260830230803 82 146 2.6 7.0 0.00 0.00 0.00 73 1007.1
20260830230303 82 185 1.7 2.6 0.00 0.00 0.00 73 1007.0
20260830225306 83 161 0.9 7.8 0.00 0.00 0.00 69 1007.0
20260830224804 83 174 1.7 8.7 0.00 0.00 0.00 69 1006.8
20260830224304 83 148 1.7 8.7 0.00 0.00 0.00 69 1006.7
20260830223304 83 192 0.9 6.1 0.00 0.00 0.00 69 1006.7
20260830222803 83 175 2.6 8.7 0.00 0.00 0.00 69 1006.6
20260830222306 83 188 1.7 8.7 0.00 0.00 0.00 69 1006.6
20260830221803 84 151 5.2 10.4 0.00 0.00 0.00 69 1006.7
20260830221304 84 154 1.7 8.7 0.00 0.00 0.00 69 1006.8
20260830220304 85 144 0.9 10.4 0.00 0.00 0.00 69 1006.6
20260830215803 84 165 2.6 10.4 0.00 0.00 0.00 74 1006.5
20260830215305 84 176 1.7 7.0 0.00 0.00 0.00 74 1006.7
20260830214804 84 175 4.3 8.7 0.00 0.00 0.00 74 1006.7
20260830214303 84 161 2.6 7.8 0.00 0.00 0.00 74 1006.6
20260830213803 85 200 2.6 8.7 0.00 0.00 0.00 74 1006.5
20260830213304 85 180 5.2 10.4 0.00 0.00 0.00 74 1006.5
20260830212306 85 237 2.6 10.4 0.00 0.00 0.00 74 1006.3
20260830211304 87 154 2.6 10.4 0.00 0.00 0.00 74 1006.4
20260830210803 87 146 6.1 12.2 0.00 0.00 0.00 74 1006.4
20260830210303 87 180 1.7 7.8 0.00 0.00 0.00 74 1006.4
20260830205804 87 152 2.6 8.7 0.00 0.00 0.00 71 1006.4
20260830205305 86 151 2.6 8.7 0.00 0.00 0.00 71 1006.4
20260830204803 86 199 1.7 7.8 0.00 0.00 0.00 71 1006.4
20260830204304 87 169 5.2 12.2 0.00 0.00 0.00 71 1006.4
20260830203803 87 170 2.6 10.4 0.00 0.00 0.00 71 1006.4
20260830203304 87 170 2.6 10.4 0.00 0.00 0.00 71 1006.4
20260830202804 87 121 1.7 10.4 0.00 0.00 0.00 71 1006.5
20260830202305 87 174 2.6 10.4 0.00 0.00 0.00 71 1006.5
20260830201303 87 168 2.6 7.8 0.00 0.00 0.00 71 1006.7
20260830200803 87 156 4.3 10.4 0.00 0.00 0.00 71 1006.7
20260830200303 87 156 2.6 8.7 0.00 0.00 0.00 71 1006.7
20260830194304 85 161 3.5 8.7 0.00 0.00 0.00 76 1006.6
20260830193803 86 139 4.3 10.4 0.00 0.00 0.00 76 1006.7
20260830193304 86 156 5.2 8.7 0.00 0.00 0.00 76 1006.8
20260830192804 86 109 2.6 7.8 0.00 0.00 0.00 76 1006.8
20260830191804 86 96 2.6 12.2 0.00 0.00 0.00 76 1006.8
20260830191304 86 143 5.2 12.2 0.00 0.00 0.00 76 1006.7
20260830190305 86 147 5.2 8.7 0.00 0.00 0.00 76 1006.7
20260830185805 86 134 1.7 8.7 0.00 0.00 0.00 72 1006.7
20260830185306 86 131 2.6 7.8 0.00 0.00 0.00 72 1006.7
20260830184804 85 76 4.3 7.8 0.00 0.00 0.00 72 1006.6
20260830184304 85 113 4.3 8.7 0.00 0.00 0.00 72 1006.7
20260830183803 85 75 5.2 8.7 0.00 0.00 0.00 72 1006.5
20260830183305 85 94 1.7 7.8 0.00 0.00 0.00 72 1006.5
20260830182804 85 86 2.6 8.7 0.00 0.00 0.00 72 1006.7
20260830182306 84 68 1.7 6.1 0.00 0.00 0.00 72 1006.7
20260830181804 84 59 2.6 7.0 0.00 0.00 0.00 72 1006.8
20260830181304 84 114 3.5 8.7 0.00 0.00 0.00 72 1006.8
20260830180804 84 110 1.7 7.0 0.00 0.00 0.00 72 1006.9
20260830180304 83 127 1.7 7.8 0.00 0.00 0.00 74 1007.0
20260830175804 83 154 0.9 5.2 0.00 0.00 0.00 82 1007.0
20260830175306 84 128 0.9 6.1 0.00 0.00 0.00 82 1007.0
20260830174804 83 155 1.7 8.7 0.00 0.00 0.00 82 1007.0
20260830174303 83 129 3.5 7.8 0.00 0.00 0.00 82 1007.3
20260830173804 82 130 4.3 11.3 0.00 0.00 0.00 82 1007.5
20260830172804 81 196 0.9 7.8 0.00 0.00 0.00 82 1007.8
20260830172306 81 171 0.0 4.3 0.00 0.00 0.00 82 1007.6
20260830171804 81 127 0.0 6.1 0.00 0.00 0.00 82 1007.6
20260830171304 80 102 0.9 6.1 0.00 0.00 0.00 82 1007.8
20260830170804 80 154 0.9 2.6 0.00 0.00 0.00 82 1008.1
20260830170304 80 180 0.9 7.0 0.00 0.00 0.00 82 1008.2
20260830165804 80 96 0.9 4.3 0.00 0.00 0.00 80 1008.2
20260830165306 79 109 0.9 7.0 0.00 0.00 0.00 80 1008.2
20260830164804 78 138 0.9 6.1 0.00 0.00 0.00 80 1008.3
20260830164304 78 142 2.6 6.1 0.00 0.00 0.00 80 1008.2
20260830163804 78 115 0.0 2.6 0.00 0.00 0.00 80 1008.1
20260830163304 78 120 0.9 4.3 0.00 0.00 0.00 80 1007.8
20260830162804 78 130 1.7 4.3 0.00 0.00 0.00 80 1007.7
20260830162306 79 88 0.0 2.6 0.00 0.00 0.00 80 1007.7
20260830161804 78 88 0.0 2.6 0.00 0.00 0.00 80 1007.8
20260830161304 78 130 0.9 4.3 0.00 0.00 0.00 80 1007.9
20260830160804 78 155 0.0 2.6 0.00 0.00 0.00 80 1007.7
20260830160304 79 129 0.9 6.1 0.00 0.00 0.00 80 1007.8
20260830155804 79 178 1.7 5.2 0.00 0.00 0.00 81 1007.5
20260830154804 78 72 1.7 7.0 0.00 0.00 0.00 81 1007.3
20260830154304 78 125 3.5 7.0 0.00 0.00 0.00 81 1007.3
20260830153804 77 149 1.7 5.2 0.00 0.00 0.00 81 1007.1
20260830153305 77 85 2.6 7.0 0.00 0.00 0.00 81 1007.2
20260830152804 77 75 2.6 6.1 0.00 0.00 0.00 81 1007.1
20260830152306 77 93 1.7 5.2 0.00 0.00 0.00 81 1007.1
20260830151804 76 151 0.9 1.7 0.00 0.00 0.00 81 1007.2
20260830151304 76 150 0.9 4.3 0.00 0.00 0.00 81 1007.2
20260830150803 75 97 0.9 5.2 0.00 0.00 0.00 81 1007.2
20260830150303 75 103 1.7 5.2 0.00 0.00 0.00 83 1007.1
20260830145804 75 58 0.9 2.6 0.00 0.00 0.00 92 1007.1
20260830145306 74 92 0.9 6.1 0.00 0.00 0.00 92 1007.1
20260830144803 74 77 2.6 6.1 0.00 0.00 0.00 92 1007.1
20260830144304 73 69 2.6 4.3 0.00 0.00 0.00 92 1007.2
20260830143804 72 68 0.0 2.6 0.00 0.00 0.00 92 1007.1
20260830143304 72 105 0.9 2.6 0.00 0.00 0.00 92 1007.1
20260830142803 72 173 0.9 2.6 0.00 0.00 0.00 92 1007.2
20260830142305 72 126 0.0 1.7 0.00 0.00 0.00 92 1007.4
20260830141804 71 82 0.9 2.6 0.00 0.00 0.00 92 1007.3
20260830141303 71 82 1.7 6.1 0.00 0.00 0.00 92 1007.2
20260830140803 71 80 1.7 2.6 0.00 0.00 0.00 92 1007.3
20260830140304 71 71 0.0 4.3 0.00 0.00 0.00 92 1007.3
20260830135803 71 69 0.0 2.6 0.00 0.00 0.00 100 1007.3
20260830135306 71 78 0.9 2.6 0.00 0.00 0.00 100 1007.4
20260830133803 70 75 2.6 5.2 0.00 0.00 0.00 100 1007.5
20260830133304 69 86 1.7 4.3 0.00 0.00 0.00 100 1007.5
20260830132804 69 91 0.9 5.2 0.00 0.00 0.00 100 1007.5
20260830132305 69 106 0.0 2.6 0.00 0.00 0.00 100 1007.4
20260830131804 69 109 0.0 2.6 0.00 0.00 0.00 100 1007.3
20260830131303 68 77 0.9 5.2 0.00 0.03 0.00 100 1007.3
20260830130803 68 96 0.9 5.2 0.00 0.03 0.00 100 1007.2
20260830130304 68 129 0.9 2.6 0.00 0.04 0.00 100 1007.2
20260830125803 68 102 2.6 4.3 0.00 0.04 0.00 100 1007.0
20260830125306 68 153 1.7 5.2 0.00 0.04 0.00 100 1007.2
20260830124803 68 204 0.0 0.0 0.00 0.04 0.00 100 1007.3
20260830124304 67 0 0.0 1.7 0.00 0.04 0.00 100 1007.5
20260830123804 67 0 0.0 0.0 0.00 0.04 0.00 100 1007.5
20260830123303 67 0 0.0 1.7 0.00 0.05 0.00 100 1007.3
20260830122306 67 0 0.0 0.0 0.00 0.07 0.00 100 1007.3
20260830121804 67 0 0.0 0.0 0.00 0.07 0.00 100 1007.4
20260830121304 67 0 0.0 0.0 0.00 0.09 0.00 100 1007.3
20260830120804 66 0 0.0 0.0 0.00 0.10 0.00 100 1007.3
20260830115803 66 0 0.0 0.0 0.00 0.12 0.00 100 1007.0
20260830115306 66 0 0.0 0.0 0.00 0.13 0.00 100 1007.1
20260830114303 66 0 0.0 0.0 0.00 0.14 0.00 100 1007.0
20260830113804 66 0 0.0 0.0 0.00 0.15 0.00 100 1006.9
20260830113304 66 0 0.0 0.0 0.00 0.16 0.00 100 1006.9
20260830112804 66 0 0.0 0.9 0.00 0.17 0.00 100 1006.9
20260830112306 66 0 0.0 0.0 0.00 0.18 0.00 100 1006.9
20260830111803 66 0 0.0 0.0 0.00 0.19 0.00 100 1006.9
20260830110804 66 0 0.0 0.0 0.00 0.20 0.00 100 1007.0